TimeCST,TemperatureF,Dew PointF,Humidity,Sea Level PressureIn,VisibilityMPH,Wind Direction,Wind SpeedMPH,Gust SpeedMPH,PrecipitationIn,Events,Conditions,WindDirDegrees,DateUTC
12:15 AM,10.4,1.4,67,30.33,10.0,SW,12.7,-,N/A,,Clear,220,2013-12-10 06:15:00
12:35 AM,10.4,1.4,67,30.33,10.0,SW,10.4,-,N/A,,Clear,220,2013-12-10 06:35:00
12:55 AM,10.4,1.4,67,30.34,10.0,SW,9.2,-,N/A,,Clear,230,2013-12-10 06:55:00
1:15 AM,10.4,1.4,67,30.33,10.0,SW,11.5,-,N/A,,Clear,230,2013-12-10 07:15:00
1:35 AM,10.4,1.4,67,30.33,10.0,SSW,11.5,-,N/A,,Clear,210,2013-12-10 07:35:00
1:55 AM,12.2,3.2,67,30.32,10.0,SW,12.7,-,N/A,,Clear,220,2013-12-10 07:55:00
2:15 AM,12.2,3.2,67,30.30,10.0,SW,12.7,-,N/A,,Clear,220,2013-12-10 08:15:00
2:35 AM,12.2,3.2,67,30.31,10.0,SW,12.7,-,N/A,,Clear,220,2013-12-10 08:35:00
2:55 AM,12.2,3.2,67,30.32,10.0,SW,12.7,-,N/A,,Clear,230,2013-12-10 08:55:00
3:15 AM,10.4,3.2,73,30.33,10.0,SW,13.8,-,N/A,,Clear,230,2013-12-10 09:15:00
3:35 AM,10.4,3.2,73,30.33,10.0,SW,11.5,-,N/A,,Clear,220,2013-12-10 09:35:00
3:55 AM,10.4,3.2,73,30.32,10.0,SW,12.7,-,N/A,,Clear,220,2013-12-10 09:55:00
4:35 AM,14.0,6.8,73,30.32,10.0,SW,12.7,-,N/A,,Clear,220,2013-12-10 10:35:00
4:55 AM,14.0,6.8,73,30.32,10.0,SW,13.8,-,N/A,,Clear,230,2013-12-10 10:55:00
5:15 AM,12.2,5.0,73,30.32,10.0,SW,11.5,-,N/A,,Clear,230,2013-12-10 11:15:00
5:35 AM,12.2,6.8,79,30.33,10.0,SW,12.7,-,N/A,,Clear,220,2013-12-10 11:35:00
5:55 AM,14.0,8.6,79,30.33,10.0,SW,11.5,-,N/A,,Clear,230,2013-12-10 11:55:00
6:15 AM,14.0,8.6,79,30.33,10.0,SW,11.5,-,N/A,,Clear,230,2013-12-10 12:15:00
6:35 AM,14.0,8.6,79,30.34,10.0,SW,11.5,-,N/A,,Clear,220,2013-12-10 12:35:00
6:55 AM,15.8,10.4,79,30.34,10.0,SW,12.7,-,N/A,,Clear,220,2013-12-10 12:55:00
7:15 AM,15.8,10.4,79,30.34,10.0,SW,11.5,-,N/A,,Clear,220,2013-12-10 13:15:00
7:35 AM,17.6,10.4,73,30.34,10.0,SW,10.4,-,N/A,,Clear,230,2013-12-10 13:35:00
7:55 AM,17.6,10.4,73,30.34,10.0,SW,12.7,-,N/A,,Clear,220,2013-12-10 13:55:00
8:15 AM,19.4,12.2,74,30.35,10.0,SW,13.8,-,N/A,,Clear,220,2013-12-10 14:15:00
8:35 AM,21.2,12.2,68,30.34,10.0,SW,11.5,-,N/A,,Clear,220,2013-12-10 14:35:00
8:55 AM,23.0,12.2,63,30.34,10.0,SW,13.8,-,N/A,,Clear,220,2013-12-10 14:55:00
9:15 AM,23.0,12.2,63,30.35,10.0,SW,12.7,-,N/A,,Clear,230,2013-12-10 15:15:00
9:35 AM,26.6,12.2,55,30.34,10.0,SW,11.5,-,N/A,,Clear,230,2013-12-10 15:35:00
9:55 AM,28.4,14.0,55,30.33,10.0,SW,11.5,-,N/A,,Clear,230,2013-12-10 15:55:00
10:15 AM,30.2,14.0,51,30.33,10.0,SW,9.2,-,N/A,,Clear,220,2013-12-10 16:15:00
10:35 AM,32.0,12.2,44,30.32,10.0,SW,9.2,-,N/A,,Clear,230,2013-12-10 16:35:00
10:55 AM,33.8,12.2,41,30.30,10.0,SSW,9.2,-,N/A,,Clear,210,2013-12-10 16:55:00
11:15 AM,37.4,12.2,36,30.29,10.0,SSW,9.2,-,N/A,,Clear,210,2013-12-10 17:15:00
11:35 AM,42.8,10.4,27,30.28,10.0,SW,12.7,-,N/A,,Clear,220,2013-12-10 17:35:00
11:55 AM,46.4,1.4,16,30.26,10.0,SSW,16.1,20.7,N/A,,Clear,210,2013-12-10 17:55:00
12:15 PM,48.2,-0.4,13,30.24,10.0,SSW,17.3,21.9,N/A,,Clear,200,2013-12-10 18:15:00
12:35 PM,48.2,-2.2,12,30.22,10.0,South,19.6,23.0,N/A,,Clear,180,2013-12-10 18:35:00
12:55 PM,48.2,-0.4,13,30.20,10.0,South,19.6,26.5,N/A,,Clear,190,2013-12-10 18:55:00
1:15 PM,48.2,1.4,15,30.19,10.0,South,19.6,25.3,N/A,,Clear,170,2013-12-10 19:15:00
1:35 PM,50.0,1.4,14,30.18,10.0,South,19.6,26.5,N/A,,Clear,170,2013-12-10 19:35:00
1:55 PM,50.0,1.4,14,30.16,10.0,South,18.4,25.3,N/A,,Clear,170,2013-12-10 19:55:00
2:15 PM,50.0,-0.4,13,30.16,10.0,South,21.9,26.5,N/A,,Clear,170,2013-12-10 20:15:00
2:35 PM,50.0,-0.4,13,30.15,10.0,South,19.6,26.5,N/A,,Clear,170,2013-12-10 20:35:00
2:55 PM,48.2,3.2,16,30.15,10.0,South,17.3,25.3,N/A,,Clear,170,2013-12-10 20:55:00
3:15 PM,48.2,1.4,15,30.14,10.0,SSE,19.6,25.3,N/A,,Clear,160,2013-12-10 21:15:00
3:35 PM,46.4,1.4,16,30.13,10.0,South,21.9,26.5,N/A,,Clear,170,2013-12-10 21:35:00
3:55 PM,46.4,1.4,16,30.12,10.0,South,17.3,24.2,N/A,,Clear,170,2013-12-10 21:55:00
4:15 PM,46.4,1.4,16,30.12,10.0,South,16.1,21.9,N/A,,Clear,170,2013-12-10 22:15:00
4:35 PM,44.6,1.4,17,30.12,10.0,South,13.8,18.4,N/A,,Clear,170,2013-12-10 22:35:00
4:55 PM,42.8,3.2,19,30.10,10.0,SSE,15.0,-,N/A,,Clear,160,2013-12-10 22:55:00
5:15 PM,41.0,5.0,23,30.10,10.0,SSE,13.8,24.2,N/A,,Clear,160,2013-12-10 23:15:00
5:35 PM,37.4,5.0,26,30.09,10.0,South,16.1,19.6,N/A,,Clear,170,2013-12-10 23:35:00
5:55 PM,37.4,5.0,26,30.08,10.0,South,16.1,-,N/A,,Clear,170,2013-12-10 23:55:00
6:15 PM,35.6,8.6,33,30.08,10.0,South,19.6,26.5,N/A,,Clear,170,2013-12-11 00:15:00
6:35 PM,33.8,14.0,44,30.08,10.0,South,19.6,27.6,N/A,,Clear,180,2013-12-11 00:35:00
6:55 PM,33.8,19.4,56,30.07,10.0,South,20.7,28.8,N/A,,Clear,190,2013-12-11 00:55:00
7:15 PM,32.0,19.4,60,30.08,10.0,South,21.9,28.8,N/A,,Clear,190,2013-12-11 01:15:00
7:35 PM,32.0,21.2,64,30.07,10.0,South,20.7,29.9,N/A,,Clear,190,2013-12-11 01:35:00
7:55 PM,32.0,21.2,64,30.08,10.0,South,24.2,32.2,N/A,,Clear,190,2013-12-11 01:55:00
8:15 PM,33.8,21.2,60,30.07,10.0,SSW,23.0,31.1,N/A,,Clear,200,2013-12-11 02:15:00
8:35 PM,33.8,21.2,60,30.07,10.0,South,21.9,31.1,N/A,,Clear,190,2013-12-11 02:35:00
8:55 PM,33.8,21.2,60,30.08,10.0,South,20.7,32.2,N/A,,Clear,190,2013-12-11 02:55:00
9:15 PM,32.0,21.2,64,30.09,10.0,SSW,18.4,24.2,N/A,,Clear,210,2013-12-11 03:15:00
9:35 PM,32.0,21.2,64,30.09,10.0,SSW,19.6,27.6,N/A,,Clear,200,2013-12-11 03:35:00
9:55 PM,32.0,21.2,64,30.09,10.0,SSW,17.3,27.6,N/A,,Clear,210,2013-12-11 03:55:00
10:15 PM,32.0,21.2,64,30.10,10.0,SSW,16.1,23.0,N/A,,Clear,200,2013-12-11 04:15:00
10:35 PM,32.0,21.2,64,30.10,10.0,SSW,16.1,23.0,N/A,,Clear,200,2013-12-11 04:35:00
10:55 PM,32.0,21.2,64,30.11,10.0,SSW,16.1,21.9,N/A,,Clear,200,2013-12-11 04:55:00
11:15 PM,32.0,21.2,64,30.12,10.0,SSW,17.3,-,N/A,,Clear,210,2013-12-11 05:15:00
11:35 PM,33.8,21.2,60,30.13,10.0,SSW,16.1,20.7,N/A,,Clear,210,2013-12-11 05:35:00
11:55 PM,32.0,21.2,64,30.15,10.0,SW,12.7,-,N/A,,Clear,220,2013-12-11 05:55:00